Indianapolis, IN

5:27 AM EST on November 17, 2019 (GMT -0500)
Indianapolis International

Weather History for KIND - September, 2019

Change the Weather History Date:

Wednesday, September 11, 2019

  Actual Average Record
Temperature  
Mean Temperature 82 °F 69 °F  
Max Temperature 90 °F 80 °F 95 °F (1897)
Min Temperature 73 °F 58 °F 39 °F (1917)
Degree Days  
Heating Degree Days 0 1  
Month to date heating degree days 0 7  
Since 1 July heating degree days 0 11  
Cooling Degree Days 17 5  
Month to date cooling degree days 84 70  
Year to date cooling degree days 1123 991  
Growing Degree Days 32 (Base 50)    
Moisture  
Dew Point 70 °F    
Average Humidity 69    
Maximum Humidity 87    
Minimum Humidity 50    
Precipitation  
Precipitation 0.01 in 0.11 in 1.78 in (1890)
Month to date precipitation 0.01 1.12  
Year to date precipitation 36.56 30.45  
Snow  
Snow 0.00 in 0.00 in 0.00 in ()
Month to date snowfall 0.0 0.0  
Since 1 July snowfall 0.0 0.0  
Since 1 September snowfall 0.0 0.0  
Snow Depth 0.00 in    
Sea Level Pressure  
Sea Level Pressure 30.14 in    
Wind  
Wind Speed 9 mph (SW)    
Max Wind Speed 17 mph    
Max Gust Speed 24 mph    
Visibility 10 miles    
Events Rain    
T = Trace of Precipitation, MM = Missing Value Source: NWS Daily Summary

Daily Weather History Graph

Daily Weather History Graph

Search for Another Location

Airport or City:

Astronomy

Sep. 11, 2019 Rise Set
Actual Time 7:22 AM EDT 8:00 PM EDT
Civil Twilight 6:55 AM EDT 8:27 PM EDT
Nautical Twilight 6:22 AM EDT 8:59 PM EDT
Astronomical Twilight 5:49 AM EDT 9:32 PM EDT
Moon 7:12 PM EDT (9/11) 4:44 AM EDT (9/11)
Length of Visible Light 13h 32m
Length of Day
12h 38m
Waxing Gibbous, 94% of the Moon is Illuminated
Sep 11
Waxing Gibbous
Sep 14
Full
Sep 21
Last Quarter
Sep 28
New
Oct 5
First Quarter

Hourly Weather History & Observations

Time (EDT) Temp. Heat Index Dew Point Humidity Pressure Visibility Wind Dir Wind Speed Gust Speed Precip Events Conditions
12:54 AM 77.0 °F - 69.1 °F 76% 30.14 in 10.0 mi Calm Calm - N/A   Partly Cloudy
1:54 AM 73.9 °F - 70.0 °F 87% 30.14 in 10.0 mi SW 6.9 mph - N/A   Scattered Clouds
2:54 AM 75.0 °F - 70.0 °F 84% 30.15 in 10.0 mi WSW 6.9 mph - N/A   Mostly Cloudy
3:54 AM 75.0 °F - 70.0 °F 84% 30.14 in 10.0 mi WSW 5.8 mph - N/A   Mostly Cloudy
4:54 AM 73.9 °F - 70.0 °F 87% 30.15 in 10.0 mi SSW 10.4 mph - N/A   Scattered Clouds
5:54 AM 75.0 °F - 69.1 °F 82% 30.16 in 10.0 mi SW 8.1 mph - N/A   Mostly Cloudy
6:54 AM 73.9 °F - 69.1 °F 85% 30.16 in 10.0 mi SW 6.9 mph - N/A   Mostly Cloudy
7:54 AM 73.0 °F - 70.0 °F 90% 30.18 in 10.0 mi SW 5.8 mph - 0.00 in Rain Light Rain
8:54 AM 73.9 °F - 70.0 °F 87% 30.19 in 10.0 mi SSW 8.1 mph - 0.01 in   Mostly Cloudy
9:54 AM 79.0 °F - 71.1 °F 77% 30.20 in 10.0 mi SW 9.2 mph - N/A   Scattered Clouds
10:54 AM 82.0 °F 86.3 °F 71.1 °F 69% 30.19 in 10.0 mi WSW 9.2 mph - N/A   Scattered Clouds
11:54 AM 84.9 °F 90.7 °F 72.0 °F 65% 30.19 in 10.0 mi SW 8.1 mph - N/A   Mostly Cloudy
12:54 PM 87.1 °F 92.8 °F 71.1 °F 59% 30.18 in 10.0 mi SW 15.0 mph - N/A   Mostly Cloudy
1:54 PM 87.1 °F 92.0 °F 70.0 °F 57% 30.16 in 10.0 mi West 13.8 mph - N/A   Scattered Clouds
2:54 PM 88.0 °F 93.8 °F 71.1 °F 57% 30.14 in 10.0 mi WSW 11.5 mph - N/A   Mostly Cloudy
3:54 PM 89.1 °F 93.7 °F 69.1 °F 52% 30.12 in 10.0 mi WSW 15.0 mph 21.9 mph N/A   Mostly Cloudy
4:54 PM 89.1 °F 92.9 °F 68.0 °F 50% 30.11 in 10.0 mi WSW 18.4 mph - N/A   Mostly Cloudy
5:54 PM 87.1 °F 89.9 °F 66.9 °F 51% 30.09 in 10.0 mi SW 11.5 mph - N/A   Scattered Clouds
6:54 PM 86.0 °F 90.1 °F 69.1 °F 57% 30.09 in 10.0 mi SW 9.2 mph - N/A   Scattered Clouds
7:54 PM 82.0 °F 85.9 °F 70.0 °F 67% 30.07 in 10.0 mi SSW 8.1 mph - N/A   Scattered Clouds
8:54 PM 81.0 °F 84.4 °F 70.0 °F 69% 30.07 in 10.0 mi South 6.9 mph - N/A   Scattered Clouds
9:54 PM 79.0 °F - 70.0 °F 74% 30.09 in 10.0 mi South 6.9 mph - N/A   Partly Cloudy
10:54 PM 77.0 °F - 70.0 °F 79% 30.09 in 10.0 mi SSW 5.8 mph - N/A   Partly Cloudy
11:54 PM 77.0 °F - 70.0 °F 79% 30.08 in 10.0 mi Calm Calm - N/A   Clear